Location: Frankfurt am Main
(50.1109°N, 8.6821°E)
Time: 11:10:03
(UTC+02:00)

ISS - Visible Passes

Search period start: 03 April 2020 00:00
Search period end: 13 April 2020 00:00
Orbit: 418 x 423 km, 51.6° (Epoch: 03 April)

Date Brightness Start Highest point End Pass type
(mag) Time Alt. Az. Time Alt. Az. Time Alt. Az.
03 Apr -2.4 21:01:33 10° W 21:04:36 32° SSW 21:07:19 12° SSE visible
04 Apr -0.9 21:53:31 10° SW 21:53:41 10° SW 21:53:52 10° SW visible
05 Apr -1.2 21:04:43 10° W 21:06:45 15° SW 21:08:47 10° S visible
